When you browse on this site, cookies collect data to enhance your experience and personalize the content and advertising you see.
Visit our Privacy Policy to learn more. By continuing to use the site, you agree to this use of cookies and data.
  • In Hungary
  • List of Countries
  • For 7 days
  • Water Temperature
  • Satellite Maps
  • Weather Map
  • News
  • Weather Widgets
  • user-avatar
    Login

    Hourly Weather Mamyarovo

    Today, 17 November, Saturday

    Time Temperature Precipitation Wind Pressure Humidity
    00:00 -4°C° 0 mm 4 mps 767 mmHg 49%
    01:00 -4°C° 0 mm 4 mps 767 mmHg 52%
    02:00 -4°C° 0 mm 4 mps 767 mmHg 55%
    03:00 -4°C° 0 mm 3 mps 766 mmHg 59%
    04:00 -4°C° 0 mm 4 mps 765 mmHg 61%
    05:00 -4°C° 0 mm 4 mps 765 mmHg 63%
    06:00 -4°C° 0 mm 4 mps 764 mmHg 66%
    07:00 -3°C° 0.1 mm 4 mps 764 mmHg 68%
    08:00 -3°C° 0.1 mm 4 mps 763 mmHg 70%
    09:00 -3°C° 0 mm 4 mps 763 mmHg 73%
    10:00 -3°C° 0.1 mm 4 mps 762 mmHg 72%
    11:00 -2°C° 0.1 mm 4 mps 762 mmHg 72%
    12:00 -2°C° 0.1 mm 4 mps 761 mmHg 71%
    13:00 -2°C° 0 mm 4 mps 760 mmHg 72%
    14:00 -2°C° 0 mm 4 mps 760 mmHg 73%
    15:00 -1°C° 0 mm 3 mps 759 mmHg 74%
    16:00 -1°C° 0 mm 3 mps 758 mmHg 76%
    17:00 -2°C° 0 mm 4 mps 758 mmHg 79%
    18:00 -2°C° 0 mm 4 mps 757 mmHg 81%
    19:00 -2°C° 0.2 mm 4 mps 756 mmHg 84%
    20:00 -2°C° 0.2 mm 4 mps 756 mmHg 86%
    21:00 -2°C° 0.2 mm 4 mps 755 mmHg 89%
    22:00 -2°C° 0.2 mm 4 mps 755 mmHg 89%
    23:00 -2°C° 0.2 mm 4 mps 754 mmHg 89%

    Tomorrow, 18 November, Sunday

    Time Temperature Precipitation Wind Pressure Humidity
    00:00 -2°C° 0.2 mm 4 mps 754 mmHg 90%
    01:00 -2°C° 0.3 mm 4 mps 753 mmHg 90%
    02:00 -2°C° 0.3 mm 4 mps 753 mmHg 90%
    03:00 -3°C° 0.3 mm 4 mps 753 mmHg 90%
    04:00 -2°C° 0.1 mm 4 mps 752 mmHg 90%
    05:00 -2°C° 0.1 mm 4 mps 752 mmHg 91%
    06:00 -2°C° 0.1 mm 4 mps 752 mmHg 91%
    07:00 -1°C° 0 mm 3 mps 752 mmHg 91%
    08:00 -1°C° 0 mm 3 mps 752 mmHg 91%
    09:00 -1°C° 0 mm 3 mps 753 mmHg 92%
    10:00 -1°C° 0 mm 3 mps 753 mmHg 91%
    11:00 0°C° 0 mm 3 mps 753 mmHg 91%
    12:00 0°C° 0 mm 3 mps 753 mmHg 90%
    13:00 0°C° 0 mm 3 mps 754 mmHg 91%
    14:00 0°C° 0 mm 3 mps 754 mmHg 92%
    15:00 0°C° 0 mm 3 mps 754 mmHg 93%
    16:00 0°C° 0.1 mm 3 mps 754 mmHg 94%
    17:00 0°C° 0.1 mm 3 mps 755 mmHg 95%
    18:00 0°C° 0.1 mm 3 mps 755 mmHg 95%
    19:00 +1°C° 0.1 mm 2 mps 755 mmHg 96%
    20:00 -1°C° 0.1 mm 2 mps 755 mmHg 96%
    21:00 -1°C° 0.1 mm 2 mps 756 mmHg 96%
    22:00 -1°C° 0 mm 2 mps 756 mmHg 97%
    23:00 -1°C° 0 mm 2 mps 756 mmHg 97%

    Day after tomorrow, 19 November, Monday

    Time Temperature Precipitation Wind Pressure Humidity
    00:00 -1°C° 0 mm 2 mps 756 mmHg 97%
    01:00 -1°C° 0 mm 2 mps 756 mmHg 97%
    02:00 -1°C° 0 mm 2 mps 757 mmHg 97%
    03:00 -1°C° 0 mm 2 mps 757 mmHg 97%
    04:00 -1°C° 0 mm 2 mps 757 mmHg 97%
    05:00 -1°C° 0 mm 2 mps 758 mmHg 97%
    06:00 -1°C° 0 mm 2 mps 758 mmHg 97%
    07:00 -1°C° 0 mm 2 mps 758 mmHg 97%
    08:00 -1°C° 0 mm 2 mps 758 mmHg 96%
    09:00 -1°C° 0 mm 2 mps 759 mmHg 96%
    10:00 +1°C° 0 mm 2 mps 759 mmHg 95%
    11:00 +1°C° 0 mm 2 mps 760 mmHg 93%
    12:00 0°C° 0 mm 3 mps 760 mmHg 92%
    13:00 0°C° 0 mm 3 mps 760 mmHg 91%
    14:00 0°C° 0 mm 3 mps 760 mmHg 91%
    15:00 0°C° 0 mm 3 mps 761 mmHg 90%
    16:00 -1°C° 0 mm 3 mps 761 mmHg 90%
    17:00 -1°C° 0 mm 3 mps 761 mmHg 90%
    18:00 -1°C° 0 mm 3 mps 761 mmHg 89%
    19:00 -2°C° 0 mm 3 mps 761 mmHg 89%
    20:00 -2°C° 0 mm 3 mps 761 mmHg 88%
    21:00 -2°C° 0 mm 3 mps 761 mmHg 88%
    22:00 -4°C° 0 mm 3 mps 761 mmHg 88%
    23:00 -4°C° 0 mm 3 mps 761 mmHg 87%

    20 November, Tuesday

    Time Temperature Precipitation Wind Pressure Humidity
    00:00 -4°C° 0 mm 3 mps 761 mmHg 87%
    01:00 -3°C° 0 mm 2 mps 761 mmHg 87%
    02:00 -3°C° 0 mm 2 mps 761 mmHg 87%
    03:00 -4°C° 0 mm 2 mps 761 mmHg 86%
    04:00 -4°C° 0 mm 2 mps 761 mmHg 86%
    05:00 -4°C° 0 mm 2 mps 761 mmHg 86%
    06:00 -4°C° 0 mm 2 mps 760 mmHg 85%
    07:00 -5°C° 0 mm 2 mps 760 mmHg 85%
    08:00 -5°C° 0 mm 2 mps 760 mmHg 85%
    09:00 -5°C° 0 mm 2 mps 759 mmHg 85%
    10:00 -6°C° 0 mm 3 mps 759 mmHg 81%
    11:00 -5°C° 0 mm 3 mps 759 mmHg 77%
    12:00 -5°C° 0 mm 3 mps 758 mmHg 73%
    13:00 -5°C° 0 mm 3 mps 758 mmHg 73%
    14:00 -5°C° 0 mm 3 mps 757 mmHg 73%
    15:00 -5°C° 0 mm 3 mps 757 mmHg 73%
    16:00 -5°C° 0 mm 4 mps 756 mmHg 73%
    17:00 -5°C° 0 mm 4 mps 756 mmHg 73%
    18:00 -5°C° 0 mm 4 mps 755 mmHg 74%
    19:00 -5°C° 0 mm 4 mps 755 mmHg 73%
    20:00 -4°C° 0 mm 4 mps 754 mmHg 73%
    21:00 -4°C° 0 mm 4 mps 754 mmHg 72%
    22:00 -4°C° 0 mm 4 mps 754 mmHg 73%
    23:00 -4°C° 0 mm 4 mps 753 mmHg 73%

    21 November, Wednesday

    Time Temperature Precipitation Wind Pressure Humidity
    00:00 -5°C° 0 mm 4 mps 753 mmHg 74%
    01:00 -5°C° 0 mm 4 mps 753 mmHg 75%
    02:00 -4°C° 0 mm 4 mps 753 mmHg 76%
    03:00 -4°C° 0 mm 4 mps 752 mmHg 77%
    04:00 -4°C° 0 mm 4 mps 752 mmHg 79%
    05:00 -4°C° 0 mm 4 mps 752 mmHg 81%
    06:00 -4°C° 0 mm 4 mps 751 mmHg 82%
    07:00 -5°C° 0.2 mm 5 mps 751 mmHg 84%
    08:00 -5°C° 0.2 mm 5 mps 751 mmHg 85%
    09:00 -5°C° 0.2 mm 5 mps 751 mmHg 87%
    10:00 -5°C° 0.1 mm 5 mps 751 mmHg 84%
    11:00 -4°C° 0.1 mm 5 mps 751 mmHg 80%
    12:00 -4°C° 0.1 mm 5 mps 751 mmHg 77%
    13:00 -4°C° 0 mm 5 mps 751 mmHg 74%
    14:00 -5°C° 0 mm 5 mps 751 mmHg 70%
    15:00 -6°C° 0 mm 5 mps 752 mmHg 67%
    16:00 -6°C° 0 mm 5 mps 752 mmHg 68%
    17:00 -7°C° 0 mm 4 mps 752 mmHg 70%
    18:00 -7°C° 0 mm 4 mps 752 mmHg 72%
    19:00 -8°C° 0 mm 4 mps 752 mmHg 74%
    20:00 -8°C° 0 mm 4 mps 752 mmHg 76%
    21:00 -8°C° 0 mm 4 mps 752 mmHg 78%
    22:00 -8°C° 0 mm 4 mps 752 mmHg 79%
    23:00 -8°C° 0 mm 4 mps 752 mmHg 81%

    22 November, Thursday

    Time Temperature Precipitation Wind Pressure Humidity
    00:00 -7°C° 0 mm 3 mps 752 mmHg 82%
    01:00 -7°C° 0 mm 3 mps 751 mmHg 84%
    02:00 -7°C° 0 mm 3 mps 751 mmHg 87%
    03:00 -8°C° 0 mm 3 mps 750 mmHg 89%
    04:00 -9°C° 0 mm 4 mps 749 mmHg 89%
    05:00 -10°C° 0 mm 5 mps 748 mmHg 89%
    06:00 -8°C° 0 mm 5 mps 748 mmHg 90%
    07:00 -8°C° 0 mm 5 mps 747 mmHg 88%
    08:00 -9°C° 0 mm 6 mps 746 mmHg 86%
    09:00 -8°C° 0 mm 6 mps 745 mmHg 84%
    10:00 -8°C° 0.2 mm 6 mps 744 mmHg 83%
    11:00 -6°C° 0.2 mm 6 mps 743 mmHg 82%
    12:00 -6°C° 0.2 mm 6 mps 742 mmHg 82%
    13:00 -6°C° 0.4 mm 6 mps 742 mmHg 84%
    14:00 -6°C° 0.4 mm 6 mps 741 mmHg 87%
    15:00 -6°C° 0.4 mm 6 mps 740 mmHg 89%
    16:00 -5°C° 0.3 mm 6 mps 741 mmHg 86%
    17:00 -6°C° 0.3 mm 7 mps 741 mmHg 82%
    18:00 -6°C° 0.3 mm 8 mps 742 mmHg 79%
    19:00 -7°C° 0 mm 7 mps 743 mmHg 77%
    20:00 -8°C° 0 mm 6 mps 744 mmHg 75%
    21:00 -9°C° 0 mm 6 mps 745 mmHg 73%
    22:00 -10°C° 0 mm 5 mps 746 mmHg 75%
    23:00 -11°C° 0 mm 5 mps 746 mmHg 78%
    Show more